Location: New Frontier Mobile Home Park
(32.8448°N, 116.9675°W)
Time: 22:46:39
(UTC+00:00)

Cosmos 407 Rocket - Pass Details

Date: 14 July 2020
Orbit: 744 x 786 km, 74.0° (Epoch: 05 August)

Event Time Altitude Azimuth Distance (km) Brightness Sun altitude
Exits shadow 09:16:14 48° 4° (N) 1,023 4.4 -32.1°
Drops below altitude 10° 09:20:03 10° 14° (NNE) 2,350 6.9 -31.8°
Sets 09:22:28 0° 16° (NNE) 3,281 7.9 -31.6°
